Telluride, CO

9:00 AM MDT on August 28, 2016 (GMT -0600)
Telluride Regional

Weather History for KTEX - March, 2014

Change the Weather History Date:

Thursday, March 20, 2014

  Actual Average Record
Temperature  
Mean Temperature 34 °F -  
Max Temperature 46 °F 41 °F 62 °F (2004)
Min Temperature 21 °F 22 °F 14 °F (2012)
Degree Days  
Heating Degree Days 32    
Moisture  
Dew Point -6 °F    
Average Humidity 19    
Maximum Humidity 40    
Minimum Humidity 10    
Precipitation  
Precipitation 0.00 in - - ()
Sea Level Pressure  
Sea Level Pressure 30.16 in    
Wind  
Wind Speed 6 mph (South)    
Max Wind Speed 15 mph    
Max Gust Speed 24 mph    
Visibility 10 miles    
Events      
Averages and records for this station are not official NWS values.
T = Trace of Precipitation, MM = Missing Value Source: NWS Daily Summary

Daily Weather History Graph

Daily Weather History Graph

Search for Another Location

Airport or City:

Trip Planner

Search our weather history database for the weather conditions in past years. The results will help you decide how hot, cold, wet, or windy it might be!

Date:

Astronomy

Mar. 20, 2014 Rise Set
Actual Time 7:15 AM MDT 7:23 PM MDT
Civil Twilight 6:48 AM MDT 7:49 PM MDT
Nautical Twilight 6:18 AM MDT 8:20 PM MDT
Astronomical Twilight 5:47 AM MDT 8:51 PM MDT
Moon 11:42 PM MDT (3/20) 9:27 AM MDT (3/20)
Length of Visible Light 13h 01m
Length of Day
12h 08m
Waning Gibbous, 83% of the Moon is Illuminated
Mar 20
Waning Gibbous
Mar 23
Last Quarter
Mar 30
New
Apr 7
First Quarter
Apr 15
Full

Hourly Weather History & Observations

Time (MDT) Temp. Windchill Dew Point Humidity Pressure Visibility Wind Dir Wind Speed Gust Speed Precip Events Conditions
12:18 AM 26.6 °F 18.2 °F 5.0 °F 40% 30.25 in 10.0 mi ESE 8.1 mph - N/A   Clear
12:40 AM 26.6 °F 18.2 °F 1.4 °F 34% 30.25 in 10.0 mi SE 8.1 mph - N/A   Clear
12:58 AM 24.8 °F 16.1 °F 3.2 °F 40% 30.25 in 10.0 mi ESE 8.1 mph - N/A   Clear
1:17 AM 24.8 °F 15.3 °F 1.4 °F 36% 30.24 in 10.0 mi ESE 9.2 mph - N/A   Clear
1:59 AM 23.0 °F 13.9 °F -2.2 °F 33% 30.24 in 10.0 mi SE 8.1 mph - N/A   Clear
2:20 AM 24.8 °F 16.1 °F -2.2 °F 31% 30.24 in 10.0 mi ESE 8.1 mph - N/A   Clear
2:37 AM 24.8 °F 16.1 °F -5.8 °F 26% 30.24 in 10.0 mi ESE 8.1 mph - N/A   Clear
2:59 AM 24.8 °F 16.1 °F -7.6 °F 24% 30.23 in 10.0 mi SE 8.1 mph - N/A   Clear
3:20 AM 23.0 °F 13.9 °F -5.8 °F 28% 30.22 in 10.0 mi ESE 8.1 mph - N/A   Clear
3:37 AM 23.0 °F 14.7 °F -9.4 °F 24% 30.22 in 10.0 mi ESE 6.9 mph - N/A   Clear
3:58 AM 23.0 °F 13.9 °F -9.4 °F 24% 30.21 in 10.0 mi SE 8.1 mph - N/A   Clear
4:18 AM 23.0 °F 14.7 °F -9.4 °F 24% 30.21 in 10.0 mi ESE 6.9 mph - N/A   Clear
4:37 AM 24.8 °F 16.1 °F -9.4 °F 22% 30.21 in 10.0 mi ESE 8.1 mph - N/A   Clear
4:58 AM 24.8 °F 17.9 °F -11.2 °F 20% 30.21 in 10.0 mi ESE 5.8 mph - N/A   Clear
5:40 AM 24.8 °F 16.1 °F -11.2 °F 20% 30.20 in 10.0 mi SE 8.1 mph - N/A   Clear
5:58 AM 24.8 °F 16.1 °F -11.2 °F 20% 30.20 in 10.0 mi SE 8.1 mph - N/A   Clear
6:19 AM 24.8 °F 16.1 °F -11.2 °F 20% 30.20 in 10.0 mi ESE 8.1 mph - N/A   Clear
6:39 AM 26.6 °F 21.2 °F -11.2 °F 19% 30.19 in 10.0 mi SE 4.6 mph - N/A   Clear
6:58 AM 23.0 °F 14.7 °F -11.2 °F 22% 30.19 in 10.0 mi SE 6.9 mph - N/A   Clear
7:20 AM 21.2 °F 16.4 °F -9.4 °F 26% 30.20 in 10.0 mi SE 3.5 mph - N/A   Clear
7:38 AM 23.0 °F - -9.4 °F 24% 30.20 in 10.0 mi Calm Calm - N/A   Clear
8:00 AM 21.2 °F 14.9 °F -9.4 °F 26% 30.20 in 10.0 mi ESE 4.6 mph - N/A   Clear
8:18 AM 24.8 °F - -11.2 °F 20% 30.20 in 10.0 mi Calm Calm - N/A   Clear
9:18 AM 30.2 °F - -9.4 °F 18% 30.19 in 10.0 mi Calm Calm - N/A   Clear
9:38 AM 32.0 °F - -11.2 °F 15% 30.19 in 10.0 mi Calm Calm - N/A   Clear
10:00 AM 33.8 °F - -11.2 °F 14% 30.19 in 10.0 mi Calm Calm - N/A   Clear
10:18 AM 35.6 °F - -7.6 °F 16% 30.20 in 10.0 mi Calm Calm - N/A   Clear
10:40 AM 39.2 °F 35.9 °F -9.4 °F 12% 30.20 in 10.0 mi WSW 4.6 mph - N/A   Clear
11:00 AM 41.0 °F 38.0 °F -11.2 °F 11% 30.19 in 10.0 mi SW 4.6 mph - N/A   Clear
11:18 AM 42.8 °F 41.1 °F -9.4 °F 11% 30.19 in 10.0 mi West 3.5 mph - N/A   Clear
11:41 AM 42.8 °F 38.6 °F -7.6 °F 12% 30.18 in 10.0 mi West 6.9 mph - N/A   Clear
11:58 AM 42.8 °F - -9.4 °F 11% 30.18 in 10.0 mi Calm Calm - N/A   Clear
12:18 PM 42.8 °F - -9.4 °F 11% 30.16 in 10.0 mi Calm Calm - N/A   Clear
12:37 PM 44.6 °F 41.4 °F -7.6 °F 11% 30.16 in 10.0 mi West 5.8 mph - N/A   Clear
12:57 PM 44.6 °F 43.1 °F -7.6 °F 11% 30.15 in 10.0 mi SSW 3.5 mph - N/A   Clear
1:17 PM 44.6 °F 39.2 °F -7.6 °F 11% 30.14 in 10.0 mi West 10.4 mph - N/A   Clear
1:37 PM 46.4 °F 43.5 °F -7.6 °F 10% 30.13 in 10.0 mi West 5.8 mph 17.3 mph N/A   Clear
1:59 PM 46.4 °F 40.1 °F -5.8 °F 11% 30.12 in 10.0 mi West 15.0 mph 18.4 mph N/A   Clear
2:37 PM 46.4 °F 41.1 °F -2.2 °F 13% 30.10 in 10.0 mi WSW 11.5 mph 18.4 mph N/A   Clear
2:57 PM 46.4 °F 40.4 °F -7.6 °F 10% 30.10 in 10.0 mi WSW 13.8 mph 24.2 mph N/A   Clear
3:17 PM 46.4 °F 40.7 °F -5.8 °F 11% 30.10 in 10.0 mi SW 12.7 mph 17.3 mph N/A   Clear
3:37 PM 46.4 °F 42.4 °F -5.8 °F 11% 30.10 in 10.0 mi West 8.1 mph 19.6 mph N/A   Clear
3:57 PM 46.4 °F 40.7 °F -7.6 °F 10% 30.09 in 10.0 mi SW 12.7 mph 21.9 mph N/A   Clear
4:17 PM 46.4 °F 41.9 °F -5.8 °F 11% 30.09 in 10.0 mi SW 9.2 mph - N/A   Clear
4:57 PM 44.6 °F 40.7 °F -4.0 °F 13% 30.08 in 10.0 mi WNW 6.9 mph - N/A   Clear
5:19 PM 44.6 °F 40.2 °F -4.0 °F 13% 30.08 in 10.0 mi West 8.1 mph - N/A   Clear
5:37 PM 44.6 °F 39.7 °F -4.0 °F 13% 30.08 in 10.0 mi West 9.2 mph - N/A   Clear
5:57 PM 42.8 °F 36.6 °F -5.8 °F 13% 30.08 in 10.0 mi SW 11.5 mph - N/A   Clear
6:17 PM 42.8 °F 36.2 °F -5.8 °F 13% 30.08 in 10.0 mi West 12.7 mph 17.3 mph N/A   Clear
6:37 PM 42.8 °F 37.0 °F -4.0 °F 14% 30.08 in 10.0 mi West 10.4 mph 19.6 mph N/A   Clear
6:58 PM 41.0 °F - -4.0 °F 15% 30.08 in 10.0 mi Calm Calm - N/A   Clear
7:17 PM 41.0 °F 38.0 °F -5.8 °F 14% 30.08 in 10.0 mi WSW 4.6 mph - N/A   Clear
7:37 PM 41.0 °F 39.0 °F -5.8 °F 14% 30.08 in 10.0 mi West 3.5 mph - N/A   Clear
7:59 PM 39.2 °F - -0.4 °F 19% 30.09 in 10.0 mi Calm Calm - N/A   Clear
8:17 PM 37.4 °F - -2.2 °F 19% 30.09 in 10.0 mi Calm Calm - N/A   Clear
8:39 PM 37.4 °F 32.1 °F -0.4 °F 20% 30.09 in 10.0 mi East 6.9 mph - N/A   Clear
9:19 PM 37.4 °F - -0.4 °F 20% 30.10 in 10.0 mi Calm Calm - N/A   Clear
9:37 PM 37.4 °F - -2.2 °F 19% 30.10 in 10.0 mi Calm Calm - N/A   Clear
9:57 PM 35.6 °F - -0.4 °F 22% 30.10 in 10.0 mi Calm Calm - N/A   Clear
10:17 PM 35.6 °F - -0.4 °F 22% 30.10 in 10.0 mi Calm Calm - N/A   Clear
10:39 PM 35.6 °F - -2.2 °F 20% 30.10 in 10.0 mi Calm Calm - N/A   Clear
10:57 PM 35.6 °F - -2.2 °F 20% 30.10 in 10.0 mi Calm Calm - N/A   Clear
11:37 PM 32.0 °F 26.4 °F 1.4 °F 27% 30.10 in 10.0 mi ESE 5.8 mph - N/A   Clear
11:59 PM 32.0 °F 25.6 °F 1.4 °F 27% 30.09 in 10.0 mi ESE 6.9 mph - N/A   Clear